TimeCET,TemperatureF,Dew PointF,Humidity,Sea Level PressureIn,VisibilityMPH,Wind Direction,Wind SpeedMPH,Gust SpeedMPH,PrecipitationIn,Events,Conditions,WindDirDegrees,DateUTC
1:00 AM,25,19,69,30.40,,East,2.2,,,,,100,2013-03-05 00:00:00
5:15 AM,24.8,17.6,74,30.36,-9999.0,NNE,1.2,-,N/A,,Clear,30,2013-03-05 04:15:00
5:45 AM,23.0,17.6,80,30.36,-9999.0,ENE,1.2,-,N/A,,Clear,70,2013-03-05 04:45:00
6:00 AM,-9999,-9999,N/A,-9999,-9999.0,Variable,2.3,-,N/A,,Clear,0,2013-03-05 05:00:00
6:15 AM,21.2,15.8,80,30.36,-9999.0,ENE,2.3,-,N/A,,Clear,70,2013-03-05 05:15:00
6:45 AM,24.8,19.4,80,30.39,-9999.0,North,3.5,-,N/A,,Clear,10,2013-03-05 05:45:00
7:00 AM,24,18,71,30.40,16,North,4.5,,,,Partly Cloudy,10,2013-03-05 06:00:00
7:15 AM,28.4,21.2,74,30.39,-9999.0,NE,2.3,-,N/A,,Clear,50,2013-03-05 06:15:00
7:45 AM,30.2,23.0,75,30.39,-9999.0,SE,1.2,-,N/A,,Clear,140,2013-03-05 06:45:00
8:15 AM,33.8,21.2,60,30.39,-9999.0,East,2.3,-,N/A,,Clear,100,2013-03-05 07:15:00
8:45 AM,37.4,23.0,56,30.39,-9999.0,East,3.5,-,N/A,,Clear,90,2013-03-05 07:45:00
9:00 AM,-9999,-9999,N/A,-9999,-9999.0,Variable,2.3,-,N/A,,Clear,0,2013-03-05 08:00:00
9:15 AM,39.2,21.2,49,30.39,-9999.0,ESE,3.5,-,N/A,,Clear,120,2013-03-05 08:15:00
9:45 AM,41.0,19.4,42,30.39,-9999.0,South,4.6,-,N/A,,Clear,170,2013-03-05 08:45:00
10:45 AM,44.6,17.6,34,30.39,-9999.0,SSE,3.5,-,N/A,,Clear,150,2013-03-05 09:45:00
11:45 AM,48.2,17.6,30,30.36,-9999.0,South,9.2,-,N/A,,Clear,170,2013-03-05 10:45:00
12:00 PM,-9999,-9999,N/A,-9999,-9999.0,South,8.1,-,N/A,,Clear,170,2013-03-05 11:00:00
12:15 PM,48.2,17.6,30,30.36,-9999.0,South,9.2,-,N/A,,Clear,180,2013-03-05 11:15:00
12:45 PM,48.2,19.4,32,30.33,-9999.0,SSE,9.2,-,N/A,,Clear,160,2013-03-05 11:45:00
1:00 PM,49,18,18,30.35,25,SSE,8.9,,,,Partly Cloudy,160,2013-03-05 12:00:00
1:15 PM,50.0,17.6,28,30.33,-9999.0,South,9.2,-,N/A,,Clear,170,2013-03-05 12:15:00
1:45 PM,50.0,19.4,30,30.33,-9999.0,South,6.9,-,N/A,,Clear,190,2013-03-05 12:45:00
2:15 PM,50.0,19.4,30,30.30,-9999.0,South,10.4,-,N/A,,Clear,190,2013-03-05 13:15:00
2:45 PM,51.8,21.2,30,30.30,-9999.0,SSW,9.2,-,N/A,,Clear,200,2013-03-05 13:45:00
3:15 PM,51.8,23.0,33,30.27,-9999.0,South,9.2,-,N/A,,Clear,180,2013-03-05 14:15:00
3:45 PM,51.8,23.0,33,30.27,-9999.0,South,9.2,-,N/A,,Clear,190,2013-03-05 14:45:00
4:15 PM,51.8,23.0,33,30.27,-9999.0,South,10.4,-,N/A,,Clear,190,2013-03-05 15:15:00
4:45 PM,50.0,23.0,35,30.27,-9999.0,South,8.1,-,N/A,,Clear,190,2013-03-05 15:45:00
6:00 PM,-9999,-9999,N/A,-9999,-9999.0,North,-9999.0,-,N/A,,Unknown,0,2013-03-05 17:00:00
7:00 PM,39,23,39,30.27,,ESE,4.5,,,,,110,2013-03-05 18:00:00